Location: Bjelajci
(45.0103°N, 16.1758°E)
Time: 09:56:11
(UTC+00:00)

NOSS 2-1 (C) - Pass Details

Date: 14 July 2020
Orbit: 443 x 1759 km, 63.3° (Epoch: 29 July)

Event Time Altitude Azimuth Distance (km) Brightness Sun altitude
Rises 00:26:43 0° 318° (NW) 3,115 7.5 -20.6°
Reaches altitude 10° 00:28:47 10° 315° (NW) 2,341 6.8 -20.4°
Maximum altitude 00:34:08 60° 236° (SW) 1,111 4.5 -20.1°
Enters shadow 00:39:09 21° 163° (SSE) 2,376 6.1 -19.7°
